Time,TemperatureF,DewpointF,PressureIn,WindDirection,WindDirectionDegrees,WindSpeedMPH,WindSpeedGustMPH,Humidity,HourlyPrecipIn,Conditions,Clouds,dailyrainin,SolarRadiationWatts/m^2,SoftwareType,DateUTC
2013-06-07 00:02:00,45.0,31.0,-100.00,WSW,252,0.0,5.0,58,0.00,,,0.00,0.000000,,2013-06-07 06:02:00,
2013-06-07 00:32:00,43.0,32.0,-100.00,SW,225,2.0,3.0,66,0.00,,,0.00,0.000000,,2013-06-07 06:32:00,
2013-06-07 00:43:00,43.0,32.0,-100.00,SW,225,2.0,3.0,66,0.00,,,0.00,0.000000,,2013-06-07 06:43:00,
2013-06-07 00:52:00,43.0,32.0,-100.00,SW,225,2.0,3.0,66,0.00,,,0.00,0.000000,,2013-06-07 06:52:00,
2013-06-07 01:02:00,43.0,32.0,-100.00,SW,225,2.0,3.0,66,0.00,,,0.00,0.000000,,2013-06-07 07:02:00,
2013-06-07 01:32:00,40.0,32.0,-100.00,SW,217,1.0,3.0,73,0.00,,,0.00,0.000000,,2013-06-07 07:32:00,
2013-06-07 01:42:00,40.0,32.0,-100.00,SW,217,1.0,3.0,73,0.00,,,0.00,0.000000,,2013-06-07 07:42:00,
2013-06-07 01:52:00,40.0,32.0,-100.00,SW,217,1.0,3.0,73,0.00,,,0.00,0.000000,,2013-06-07 07:52:00,
2013-06-07 02:02:00,40.0,32.0,-100.00,SW,217,1.0,3.0,73,0.00,,,0.00,0.000000,,2013-06-07 08:02:00,
2013-06-07 02:32:00,37.0,31.0,-100.00,NW,310,3.0,5.0,78,0.00,,,0.00,0.000000,,2013-06-07 08:32:00,
2013-06-07 02:43:00,37.0,31.0,-100.00,NW,310,3.0,5.0,78,0.00,,,0.00,0.000000,,2013-06-07 08:43:00,
2013-06-07 02:52:00,37.0,31.0,-100.00,NW,310,3.0,5.0,78,0.00,,,0.00,0.000000,,2013-06-07 08:52:00,
2013-06-07 03:02:00,37.0,31.0,-100.00,NW,310,3.0,5.0,78,0.00,,,0.00,0.000000,,2013-06-07 09:02:00,
2013-06-07 03:32:00,36.0,31.0,-100.00,NW,304,2.0,5.0,82,0.00,,,0.00,0.000000,,2013-06-07 09:32:00,
2013-06-07 03:43:00,36.0,31.0,-100.00,NW,304,2.0,5.0,82,0.00,,,0.00,0.000000,,2013-06-07 09:43:00,
2013-06-07 03:53:00,36.0,31.0,-100.00,NW,304,2.0,5.0,82,0.00,,,0.00,0.000000,,2013-06-07 09:53:00,
2013-06-07 04:02:00,36.0,31.0,-100.00,NW,304,2.0,5.0,82,0.00,,,0.00,0.000000,,2013-06-07 10:02:00,
2013-06-07 04:33:00,35.0,31.0,-100.00,WNW,292,2.0,4.0,85,0.00,,,0.00,0.000000,,2013-06-07 10:33:00,
2013-06-07 04:43:00,35.0,31.0,-100.00,WNW,292,2.0,4.0,85,0.00,,,0.00,0.000000,,2013-06-07 10:43:00,
2013-06-07 04:53:00,35.0,31.0,-100.00,WNW,292,2.0,4.0,85,0.00,,,0.00,0.000000,,2013-06-07 10:53:00,
2013-06-07 05:02:00,35.0,31.0,-100.00,WNW,292,2.0,4.0,85,0.00,,,0.00,0.000000,,2013-06-07 11:02:00,
2013-06-07 05:32:00,35.0,31.0,-100.00,East,83,0.0,4.0,84,0.00,,,0.00,0.000000,,2013-06-07 11:32:00,
2013-06-07 05:42:00,35.0,31.0,-100.00,East,83,0.0,4.0,84,0.00,,,0.00,0.000000,,2013-06-07 11:42:00,
2013-06-07 05:52:00,35.0,31.0,-100.00,East,83,0.0,4.0,84,0.00,,,0.00,0.000000,,2013-06-07 11:52:00,
2013-06-07 06:02:00,35.0,31.0,-100.00,East,83,0.0,4.0,84,0.00,,,0.00,0.000000,,2013-06-07 12:02:00,
2013-06-07 06:33:00,34.0,31.0,-100.00,NNW,340,2.0,4.0,89,0.00,,,0.00,8.000000,,2013-06-07 12:33:00,
2013-06-07 06:42:00,34.0,31.0,-100.00,NNW,340,2.0,4.0,89,0.00,,,0.00,8.000000,,2013-06-07 12:42:00,
2013-06-07 06:52:00,34.0,31.0,-100.00,NNW,340,2.0,4.0,89,0.00,,,0.00,8.000000,,2013-06-07 12:52:00,
2013-06-07 07:02:00,34.0,31.0,-100.00,NNW,340,2.0,4.0,89,0.00,,,0.00,8.000000,,2013-06-07 13:02:00,
2013-06-07 07:32:00,42.0,34.0,-100.00,North,3,3.0,5.0,73,0.00,,,0.00,136.000000,,2013-06-07 13:32:00,
2013-06-07 07:43:00,42.0,34.0,-100.00,North,3,3.0,5.0,73,0.00,,,0.00,136.000000,,2013-06-07 13:43:00,
2013-06-07 07:52:00,42.0,34.0,-100.00,North,3,3.0,5.0,73,0.00,,,0.00,136.000000,,2013-06-07 13:52:00,
2013-06-07 08:02:00,42.0,34.0,-100.00,North,3,3.0,5.0,73,0.00,,,0.00,136.000000,,2013-06-07 14:02:00,
2013-06-07 08:33:00,49.0,35.0,-100.00,NE,36,3.0,6.0,58,0.00,,,0.00,346.000000,,2013-06-07 14:33:00,
2013-06-07 08:42:00,49.0,35.0,-100.00,NE,36,3.0,6.0,58,0.00,,,0.00,346.000000,,2013-06-07 14:42:00,
2013-06-07 08:52:00,49.0,35.0,-100.00,NE,36,3.0,6.0,58,0.00,,,0.00,346.000000,,2013-06-07 14:52:00,
2013-06-07 09:02:00,49.0,35.0,-100.00,NE,36,3.0,6.0,58,0.00,,,0.00,346.000000,,2013-06-07 15:02:00,
2013-06-07 09:33:00,52.0,35.0,-100.00,SSW,197,2.0,7.0,53,0.00,,,-99.99,415.000000,,2013-06-07 15:33:00,
2013-06-07 09:43:00,52.0,35.0,-100.00,SSW,197,2.0,7.0,53,0.00,,,-99.99,415.000000,,2013-06-07 15:43:00,
2013-06-07 09:53:00,52.0,35.0,-100.00,SSW,197,2.0,7.0,53,0.00,,,-99.99,415.000000,,2013-06-07 15:53:00,
2013-06-07 10:03:00,52.0,35.0,-100.00,SSW,197,2.0,7.0,53,0.00,,,-99.99,415.000000,,2013-06-07 16:03:00,
2013-06-07 10:33:00,48.0,35.0,-100.00,North,6,8.0,25.0,60,0.00,,,0.00,379.000000,,2013-06-07 16:33:00,
2013-06-07 10:43:00,48.0,35.0,-100.00,North,6,8.0,25.0,60,0.00,,,0.00,379.000000,,2013-06-07 16:43:00,
2013-06-07 10:53:00,48.0,35.0,-100.00,North,6,8.0,25.0,60,0.00,,,0.00,379.000000,,2013-06-07 16:53:00,
2013-06-07 11:02:00,48.0,35.0,-100.00,North,6,8.0,25.0,60,0.00,,,0.00,379.000000,,2013-06-07 17:02:00,
2013-06-07 11:32:00,56.0,32.0,-100.00,North,354,3.0,11.0,40,0.00,,,0.00,648.000000,,2013-06-07 17:32:00,
2013-06-07 11:43:00,56.0,32.0,-100.00,North,354,3.0,11.0,40,0.00,,,0.00,648.000000,,2013-06-07 17:43:00,
2013-06-07 11:52:00,56.0,32.0,-100.00,North,354,3.0,11.0,40,0.00,,,0.00,648.000000,,2013-06-07 17:52:00,
2013-06-07 12:05:00,56.0,32.0,-100.00,North,354,3.0,11.0,40,0.00,,,0.00,648.000000,,2013-06-07 18:05:00,
2013-06-07 12:38:00,59.0,31.0,-100.00,South,175,6.0,12.0,34,0.00,,,0.00,1075.000000,,2013-06-07 18:38:00,
2013-06-07 12:45:00,59.0,31.0,-100.00,South,175,6.0,12.0,34,0.00,,,0.00,1075.000000,,2013-06-07 18:45:00,
2013-06-07 12:59:00,59.0,31.0,-100.00,South,175,6.0,12.0,34,0.00,,,0.00,1075.000000,,2013-06-07 18:59:00,
2013-06-07 13:06:00,59.0,31.0,-100.00,South,175,6.0,12.0,34,0.00,,,0.00,1075.000000,,2013-06-07 19:06:00,
2013-06-07 13:40:00,64.0,24.0,-100.00,NW,316,5.0,13.0,22,0.00,,,0.00,983.000000,,2013-06-07 19:40:00,
2013-06-07 13:50:00,64.0,24.0,-100.00,NW,316,5.0,13.0,22,0.00,,,0.00,983.000000,,2013-06-07 19:50:00,
2013-06-07 14:07:00,64.0,24.0,-100.00,NW,316,5.0,13.0,22,0.00,,,0.00,983.000000,,2013-06-07 20:07:00,
2013-06-07 14:41:00,65.0,25.0,-100.00,NNW,347,8.0,20.0,22,0.00,,,0.00,545.000000,,2013-06-07 20:41:00,
2013-06-07 14:51:00,65.0,25.0,-100.00,NNW,347,8.0,20.0,22,0.00,,,0.00,545.000000,,2013-06-07 20:51:00,
2013-06-07 14:58:00,65.0,25.0,-100.00,NNW,347,8.0,20.0,22,0.00,,,0.00,545.000000,,2013-06-07 20:58:00,
2013-06-07 15:05:00,65.0,25.0,-100.00,NNW,347,8.0,20.0,22,0.00,,,0.00,545.000000,,2013-06-07 21:05:00,
2013-06-07 15:43:00,64.0,25.0,-100.00,North,357,9.0,21.0,23,0.00,,,0.00,699.000000,,2013-06-07 21:43:00,
2013-06-07 16:07:00,64.0,25.0,-100.00,North,357,9.0,21.0,23,0.00,,,0.00,699.000000,,2013-06-07 22:07:00,
2013-06-07 16:39:00,63.0,27.0,-100.00,NNE,14,8.0,22.0,25,0.00,,,0.00,701.000000,,2013-06-07 22:39:00,
2013-06-07 16:49:00,63.0,27.0,-100.00,NNE,14,8.0,22.0,25,0.00,,,0.00,701.000000,,2013-06-07 22:49:00,
2013-06-07 16:59:00,63.0,27.0,-100.00,NNE,14,8.0,22.0,25,0.00,,,0.00,701.000000,,2013-06-07 22:59:00,
2013-06-07 17:07:00,63.0,27.0,-100.00,NNE,14,8.0,22.0,25,0.00,,,0.00,701.000000,,2013-06-07 23:07:00,
2013-06-07 17:08:00,65.0,28.0,-100.00,NW,314,6.0,22.0,25,0.00,,,0.00,647.000000,,2013-06-07 23:08:00,
2013-06-07 18:03:00,65.0,28.0,-100.00,NW,314,6.0,22.0,25,0.00,,,0.00,647.000000,,2013-06-08 00:03:00,
2013-06-07 18:37:00,63.0,29.0,-100.00,NNW,343,6.0,15.0,27,0.00,,,0.00,433.000000,,2013-06-08 00:37:00,
2013-06-07 18:48:00,63.0,29.0,-100.00,NNW,343,6.0,15.0,27,0.00,,,0.00,433.000000,,2013-06-08 00:48:00,
2013-06-07 19:00:00,63.0,29.0,-100.00,NNW,343,6.0,15.0,27,0.00,,,0.00,433.000000,,2013-06-08 01:00:00,
2013-06-07 19:06:00,63.0,29.0,-100.00,NNW,343,6.0,15.0,27,0.00,,,0.00,433.000000,,2013-06-08 01:06:00,
2013-06-07 19:08:00,62.0,28.0,-100.00,NNW,346,8.0,17.0,27,0.00,,,0.00,337.000000,,2013-06-08 01:08:00,
2013-06-07 19:39:00,62.0,28.0,-100.00,NNW,346,8.0,17.0,27,0.00,,,0.00,337.000000,,2013-06-08 01:39:00,
2013-06-07 19:48:00,62.0,28.0,-100.00,NNW,346,8.0,17.0,27,0.00,,,0.00,337.000000,,2013-06-08 01:48:00,
2013-06-07 20:01:00,62.0,28.0,-100.00,NNW,346,8.0,17.0,27,0.00,,,0.00,337.000000,,2013-06-08 02:01:00,
2013-06-07 20:08:00,58.0,27.0,-100.00,NNW,340,5.0,16.0,30,0.00,,,0.00,61.000000,,2013-06-08 02:08:00,
2013-06-07 20:37:00,58.0,27.0,-100.00,NNW,340,5.0,16.0,30,0.00,,,0.00,61.000000,,2013-06-08 02:37:00,
2013-06-07 20:49:00,58.0,27.0,-100.00,NNW,340,5.0,16.0,30,0.00,,,0.00,61.000000,,2013-06-08 02:49:00,
2013-06-07 20:59:00,58.0,27.0,-100.00,NNW,340,5.0,16.0,30,0.00,,,0.00,61.000000,,2013-06-08 02:59:00,
2013-06-07 21:40:00,52.0,28.0,-100.00,WNW,302,3.0,5.0,39,0.00,,,0.00,6.000000,,2013-06-08 03:40:00,
2013-06-07 21:53:00,52.0,28.0,-100.00,WNW,302,3.0,5.0,39,0.00,,,0.00,6.000000,,2013-06-08 03:53:00,
2013-06-07 22:00:00,52.0,28.0,-100.00,WNW,302,3.0,5.0,39,0.00,,,0.00,6.000000,,2013-06-08 04:00:00,
2013-06-07 22:03:00,52.0,28.0,-100.00,WNW,302,3.0,5.0,39,0.00,,,0.00,6.000000,,2013-06-08 04:03:00,
2013-06-07 22:33:00,50.0,28.0,-100.00,NW,307,2.0,5.0,42,0.00,,,0.00,0.000000,,2013-06-08 04:33:00,
2013-06-07 22:42:00,50.0,28.0,-100.00,NW,307,2.0,5.0,42,0.00,,,0.00,0.000000,,2013-06-08 04:42:00,
2013-06-07 22:53:00,50.0,28.0,-100.00,NW,307,2.0,5.0,42,0.00,,,0.00,0.000000,,2013-06-08 04:53:00,
2013-06-07 23:02:00,50.0,28.0,-100.00,NW,307,2.0,5.0,42,0.00,,,0.00,0.000000,,2013-06-08 05:02:00,
2013-06-07 23:32:00,47.0,28.0,-100.00,WSW,255,0.0,3.0,48,0.00,,,0.00,0.000000,,2013-06-08 05:32:00,
2013-06-07 23:42:00,47.0,28.0,-100.00,WSW,255,0.0,3.0,48,0.00,,,0.00,0.000000,,2013-06-08 05:42:00,
2013-06-07 23:53:00,47.0,28.0,-100.00,WSW,255,0.0,3.0,48,0.00,,,0.00,0.000000,,2013-06-08 05:53:00,